Time,TemperatureF,DewpointF,PressureIn,WindDirection,WindDirectionDegrees,WindSpeedMPH,WindSpeedGustMPH,Humidity,HourlyPrecipIn,Conditions,Clouds,dailyrainin,SolarRadiationWatts/m^2,SoftwareType,DateUTC
2013-02-18 00:00:00,2.5,-1.0,29.68,ENE,73,1.0,0.0,85,0.00,OVC,FEW,0.00,0.0,WeatherDisplay:10.37,2013-02-18 05:00:00,
2013-02-18 00:01:00,2.5,-1.0,29.68,ENE,73,1.0,0.0,85,0.00,OVC,FEW,0.00,0.0,WeatherDisplay:10.37,2013-02-18 05:01:00,
2013-02-18 00:06:00,2.5,-1.0,29.69,North,360,6.0,6.0,85,0.00,OVC,FEW,0.00,0.0,WeatherDisplay:10.37,2013-02-18 05:06:00,
2013-02-18 00:11:00,2.5,-0.7,29.69,SSE,160,2.3,2.3,86,0.00,OVC,FEW,0.00,0.0,WeatherDisplay:10.37,2013-02-18 05:11:00,
2013-02-18 00:17:00,2.3,-1.2,29.69,South,170,7.0,7.0,85,0.00,OVC,FEW,0.00,0.0,WeatherDisplay:10.37,2013-02-18 05:17:00,
2013-02-18 00:22:00,2.0,-1.7,29.70,West,274,1.2,1.2,84,0.00,OVC,FEW,0.00,0.0,WeatherDisplay:10.37,2013-02-18 05:22:00,
2013-02-18 00:27:00,1.9,-1.8,29.70,ESE,105,7.0,7.0,84,0.00,OVC,FEW,0.00,0.0,WeatherDisplay:10.37,2013-02-18 05:27:00,
2013-02-18 00:32:00,1.8,-1.9,29.70,SE,132,3.5,3.5,84,0.00,OVC,FEW,0.00,0.0,WeatherDisplay:10.37,2013-02-18 05:32:00,
2013-02-18 00:37:00,1.8,-1.9,29.71,NW,307,4.0,4.0,84,0.00,OVC,FEW,0.00,0.0,WeatherDisplay:10.37,2013-02-18 05:37:00,
2013-02-18 00:42:00,1.8,-1.9,29.71,NW,310,11.5,11.5,84,0.00,OVC,FEW,0.00,0.0,WeatherDisplay:10.37,2013-02-18 05:42:00,
2013-02-18 00:47:00,1.8,-1.7,29.71,East,92,5.8,5.8,85,0.00,OVC,FEW,0.00,0.0,WeatherDisplay:10.37,2013-02-18 05:47:00,
2013-02-18 00:52:00,1.7,-2.0,29.71,WSW,245,9.2,9.2,84,0.00,OVC,FEW,0.00,0.0,WeatherDisplay:10.37,2013-02-18 05:52:00,
2013-02-18 00:57:00,1.6,-1.9,29.71,ENE,71,4.6,4.6,85,0.00,OVC,FEW,0.00,0.0,WeatherDisplay:10.37,2013-02-18 05:57:00,
2013-02-18 01:02:00,1.6,-1.9,29.72,WNW,287,15.0,15.0,85,0.00,OVC,FEW,0.00,0.0,WeatherDisplay:10.37,2013-02-18 06:02:00,
2013-02-18 01:07:00,1.4,-2.1,29.72,NW,310,4.0,4.0,85,0.00,OVC,FEW,0.00,0.0,WeatherDisplay:10.37,2013-02-18 06:07:00,
2013-02-18 01:12:00,1.4,-2.1,29.72,WSW,258,4.0,4.0,85,0.00,OVC,FEW,0.00,0.0,WeatherDisplay:10.37,2013-02-18 06:12:00,
2013-02-18 01:17:00,1.3,-2.2,29.72,SE,142,4.6,4.6,85,0.00,OVC,FEW,0.00,0.0,WeatherDisplay:10.37,2013-02-18 06:17:00,
2013-02-18 01:22:00,1.2,-2.5,29.72,ENE,59,6.0,6.0,84,0.00,OVC,FEW,0.00,0.0,WeatherDisplay:10.37,2013-02-18 06:22:00,
2013-02-18 01:27:00,1.1,-2.6,29.72,WSW,253,5.0,5.0,84,0.00,OVC,FEW,0.00,0.0,WeatherDisplay:10.37,2013-02-18 06:27:00,
2013-02-18 01:32:00,1.0,-2.7,29.73,NW,304,11.5,11.5,84,0.00,OVC,FEW,0.00,0.0,WeatherDisplay:10.37,2013-02-18 06:32:00,
2013-02-18 01:37:00,1.0,-2.7,29.73,North,10,5.8,5.8,84,0.00,OVC,FEW,0.00,0.0,WeatherDisplay:10.37,2013-02-18 06:37:00,
2013-02-18 01:42:00,1.0,-2.5,29.73,SSW,194,3.5,3.5,85,0.00,OVC,FEW,0.00,0.0,WeatherDisplay:10.37,2013-02-18 06:42:00,
2013-02-18 01:47:00,1.0,-2.5,29.73,SSE,148,4.6,4.6,85,0.00,OVC,FEW,0.00,0.0,WeatherDisplay:10.37,2013-02-18 06:47:00,
2013-02-18 01:52:00,1.0,-2.5,29.74,NW,309,11.0,11.0,85,0.00,OVC,FEW,0.00,0.0,WeatherDisplay:10.37,2013-02-18 06:52:00,
2013-02-18 01:57:00,0.9,-2.8,29.74,ENE,74,6.0,6.0,84,0.00,OVC,FEW,0.00,0.0,WeatherDisplay:10.37,2013-02-18 06:57:00,
2013-02-18 02:02:00,0.8,-2.9,29.74,NNW,338,6.0,6.0,84,0.00,OVC,FEW,0.00,0.0,WeatherDisplay:10.37,2013-02-18 07:02:00,
2013-02-18 02:07:00,0.8,-2.9,29.74,South,187,1.2,1.2,84,0.00,OVC,FEW,0.00,0.0,WeatherDisplay:10.37,2013-02-18 07:07:00,
2013-02-18 02:12:00,0.8,-2.9,29.74,SE,139,5.0,5.0,84,0.00,OVC,FEW,0.00,0.0,WeatherDisplay:10.37,2013-02-18 07:12:00,
2013-02-18 02:17:00,0.9,-2.6,29.74,SE,132,6.0,6.0,85,0.00,OVC,FEW,0.00,0.0,WeatherDisplay:10.37,2013-02-18 07:17:00,
2013-02-18 02:22:00,0.9,-2.6,29.74,North,360,10.4,10.4,85,0.00,OVC,FEW,0.00,0.0,WeatherDisplay:10.37,2013-02-18 07:22:00,
2013-02-18 02:27:00,0.9,-2.6,29.74,WNW,284,13.0,13.0,85,0.00,OVC,FEW,0.00,0.0,WeatherDisplay:10.37,2013-02-18 07:27:00,
2013-02-18 02:32:00,0.9,-2.6,29.75,SW,233,6.0,6.0,85,0.00,OVC,FEW,0.00,0.0,WeatherDisplay:10.37,2013-02-18 07:32:00,
2013-02-18 02:37:00,0.9,-2.6,29.75,North,5,6.0,6.0,85,0.00,OVC,FEW,0.00,0.0,WeatherDisplay:10.37,2013-02-18 07:37:00,
2013-02-18 02:42:00,0.9,-2.6,29.76,NW,325,7.0,7.0,85,0.00,OVC,FEW,0.00,0.0,WeatherDisplay:10.37,2013-02-18 07:42:00,
2013-02-18 02:47:00,0.9,-2.6,29.76,SSW,192,14.0,14.0,85,0.00,OVC,FEW,0.00,0.0,WeatherDisplay:10.37,2013-02-18 07:47:00,
2013-02-18 02:52:00,0.9,-2.6,29.76,SW,221,6.0,6.0,85,0.00,OVC,FEW,0.00,0.0,WeatherDisplay:10.37,2013-02-18 07:52:00,
2013-02-18 02:57:00,0.8,-2.7,29.75,West,273,5.8,5.8,85,0.00,OVC,FEW,0.00,0.0,WeatherDisplay:10.37,2013-02-18 07:57:00,
2013-02-18 03:02:00,0.7,-2.7,29.76,NE,34,11.5,11.5,85,0.00,OVC,FEW,0.00,0.0,WeatherDisplay:10.37,2013-02-18 08:02:00,
2013-02-18 03:07:00,0.5,-2.9,29.77,WSW,241,10.4,10.4,85,0.00,OVC,FEW,0.00,0.0,WeatherDisplay:10.37,2013-02-18 08:07:00,
2013-02-18 03:13:00,0.3,-3.1,29.77,WNW,294,11.5,11.5,85,0.00,OVC,FEW,0.00,0.0,WeatherDisplay:10.37,2013-02-18 08:13:00,
2013-02-18 03:18:00,0.2,-3.2,29.77,SW,232,11.5,11.5,85,0.00,OVC,FEW,0.00,0.0,WeatherDisplay:10.37,2013-02-18 08:18:00,
2013-02-18 03:23:00,0.1,-3.3,29.77,NNE,21,9.2,9.2,85,0.00,OVC,FEW,0.00,0.0,WeatherDisplay:10.37,2013-02-18 08:23:00,
2013-02-18 03:28:00,0.0,-3.4,29.78,ESE,122,6.0,6.0,85,0.00,OVC,FEW,0.00,0.0,WeatherDisplay:10.37,2013-02-18 08:28:00,
2013-02-18 03:33:00,-0.1,-3.5,29.78,SSW,196,4.6,4.6,85,0.00,OVC,FEW,0.00,0.0,WeatherDisplay:10.37,2013-02-18 08:33:00,
2013-02-18 03:38:00,-0.1,-3.5,29.78,ENE,70,6.0,6.0,85,0.00,OVC,FEW,0.00,0.0,WeatherDisplay:10.37,2013-02-18 08:38:00,
2013-02-18 03:43:00,-0.2,-3.6,29.78,SSE,147,7.0,7.0,85,0.00,OVC,FEW,0.00,0.0,WeatherDisplay:10.37,2013-02-18 08:43:00,
2013-02-18 03:48:00,-0.4,-4.1,29.79,WSW,258,10.0,10.0,84,0.00,OVC,FEW,0.00,0.0,WeatherDisplay:10.37,2013-02-18 08:48:00,
2013-02-18 03:53:00,-0.5,-3.9,29.79,NE,42,7.0,7.0,85,0.00,OVC,FEW,0.00,0.0,WeatherDisplay:10.37,2013-02-18 08:53:00,
2013-02-18 03:58:00,-0.6,-4.3,29.79,NNW,336,10.0,10.0,84,0.00,OVC,FEW,0.00,0.0,WeatherDisplay:10.37,2013-02-18 08:58:00,
2013-02-18 04:03:00,-0.7,-4.4,29.80,SSE,158,6.9,6.9,84,0.00,OVC,FEW,0.00,0.0,WeatherDisplay:10.37,2013-02-18 09:03:00,
2013-02-18 04:08:00,-0.9,-4.6,29.80,SSE,150,6.0,6.0,84,0.00,OVC,FEW,0.00,0.0,WeatherDisplay:10.37,2013-02-18 09:08:00,
2013-02-18 04:13:00,-1.1,-4.8,29.80,NNE,18,9.0,9.0,84,0.00,OVC,FEW,0.00,0.0,WeatherDisplay:10.37,2013-02-18 09:13:00,
2013-02-18 04:18:00,-1.2,-4.9,29.80,SW,224,2.3,2.3,84,0.00,OVC,FEW,0.00,0.0,WeatherDisplay:10.37,2013-02-18 09:18:00,
2013-02-18 04:23:00,-1.3,-5.0,29.81,ENE,66,9.2,9.2,84,0.00,OVC,FEW,0.00,0.0,WeatherDisplay:10.37,2013-02-18 09:23:00,
2013-02-18 04:28:00,-1.4,-5.1,29.81,NNW,327,9.2,9.2,84,0.00,OVC,FEW,0.00,0.0,WeatherDisplay:10.37,2013-02-18 09:28:00,
2013-02-18 04:33:00,-1.5,-5.2,29.81,NW,313,8.1,8.1,84,0.00,OVC,FEW,0.00,0.0,WeatherDisplay:10.37,2013-02-18 09:33:00,
2013-02-18 04:38:00,-1.6,-5.3,29.81,West,267,11.0,11.0,84,0.00,OVC,FEW,0.00,0.0,WeatherDisplay:10.37,2013-02-18 09:38:00,
2013-02-18 04:44:00,-1.8,-5.5,29.82,NNW,339,3.5,3.5,84,0.00,OVC,FEW,0.00,0.0,WeatherDisplay:10.37,2013-02-18 09:44:00,
2013-02-18 04:49:00,-1.8,-5.5,29.82,NW,314,12.7,12.7,84,0.00,OVC,FEW,0.00,0.0,WeatherDisplay:10.37,2013-02-18 09:49:00,
2013-02-18 04:54:00,-1.9,-5.6,29.82,SSW,198,5.0,5.0,84,0.00,OVC,FEW,0.00,0.0,WeatherDisplay:10.37,2013-02-18 09:54:00,
2013-02-18 04:59:00,-1.9,-5.6,29.82,WSW,249,5.0,5.0,84,0.00,OVC,FEW,0.00,0.0,WeatherDisplay:10.37,2013-02-18 09:59:00,
2013-02-18 05:04:00,-2.0,-5.6,29.83,SW,221,9.0,9.0,84,0.00,BKN,FEW,0.00,0.0,WeatherDisplay:10.37,2013-02-18 10:04:00,
2013-02-18 05:09:00,-2.1,-5.7,29.83,NNE,23,8.1,8.1,84,0.00,BKN,FEW,0.00,0.0,WeatherDisplay:10.37,2013-02-18 10:09:00,
2013-02-18 05:14:00,-2.1,-5.5,29.83,SW,223,7.0,7.0,85,0.00,BKN,FEW,0.00,0.0,WeatherDisplay:10.37,2013-02-18 10:14:00,
2013-02-18 05:19:00,-2.1,-5.7,29.83,SSW,199,5.0,5.0,84,0.00,BKN,FEW,0.00,0.0,WeatherDisplay:10.37,2013-02-18 10:19:00,
2013-02-18 05:24:00,-2.2,-5.6,29.83,SSE,155,7.0,7.0,85,0.00,BKN,FEW,0.00,0.0,WeatherDisplay:10.37,2013-02-18 10:24:00,
2013-02-18 05:29:00,-2.2,-5.8,29.84,ENE,72,12.0,12.0,84,0.00,BKN,FEW,0.00,0.0,WeatherDisplay:10.37,2013-02-18 10:29:00,
2013-02-18 05:34:00,-2.2,-5.8,29.84,West,265,10.0,10.0,84,0.00,BKN,FEW,0.00,0.0,WeatherDisplay:10.37,2013-02-18 10:34:00,
2013-02-18 05:39:00,-2.3,-5.9,29.84,NNE,32,9.0,9.0,84,0.00,BKN,FEW,0.00,0.0,WeatherDisplay:10.37,2013-02-18 10:39:00,
2013-02-18 05:44:00,-2.3,-5.7,29.84,North,360,3.5,3.5,85,0.00,BKN,FEW,0.00,0.0,WeatherDisplay:10.37,2013-02-18 10:44:00,
2013-02-18 05:49:00,-2.3,-5.9,29.85,NW,320,6.0,6.0,84,0.00,BKN,FEW,0.00,0.0,WeatherDisplay:10.37,2013-02-18 10:49:00,
2013-02-18 05:54:00,-2.3,-5.9,29.85,WSW,257,15.0,15.0,84,0.00,BKN,FEW,0.00,0.0,WeatherDisplay:10.37,2013-02-18 10:54:00,
2013-02-18 05:59:00,-2.4,-5.8,29.86,SSW,193,5.0,5.0,85,0.00,BKN,FEW,0.00,0.0,WeatherDisplay:10.37,2013-02-18 10:59:00,
2013-02-18 06:04:00,-2.4,-6.0,29.86,East,84,5.0,5.0,84,0.00,OVC,FEW,0.00,0.0,WeatherDisplay:10.37,2013-02-18 11:04:00,
2013-02-18 06:09:00,-2.4,-6.0,29.86,NE,34,10.0,10.0,84,0.00,OVC,FEW,0.00,0.0,WeatherDisplay:10.37,2013-02-18 11:09:00,
2013-02-18 06:14:00,-2.5,-5.9,29.86,North,5,5.0,5.0,85,0.00,OVC,FEW,0.00,0.0,WeatherDisplay:10.37,2013-02-18 11:14:00,
2013-02-18 06:19:00,-2.4,-5.8,29.87,WSW,254,9.2,9.2,85,0.00,OVC,FEW,0.00,0.0,WeatherDisplay:10.37,2013-02-18 11:19:00,
2013-02-18 06:24:00,-2.5,-6.1,29.87,West,280,9.2,9.2,84,0.00,OVC,FEW,0.00,0.0,WeatherDisplay:10.37,2013-02-18 11:24:00,
2013-02-18 06:29:00,-2.5,-5.9,29.87,ESE,108,5.0,5.0,85,0.00,OVC,FEW,0.00,0.0,WeatherDisplay:10.37,2013-02-18 11:29:00,
2013-02-18 06:34:00,-2.5,-6.1,29.88,SSW,200,5.0,5.0,84,0.00,OVC,FEW,0.00,0.0,WeatherDisplay:10.37,2013-02-18 11:34:00,
2013-02-18 06:39:00,-2.5,-5.9,29.88,WSW,240,4.0,4.0,85,0.00,OVC,FEW,0.00,0.0,WeatherDisplay:10.37,2013-02-18 11:39:00,
2013-02-18 06:44:00,-2.5,-5.9,29.88,NNE,23,12.0,12.0,85,0.00,OVC,FEW,0.00,0.0,WeatherDisplay:10.37,2013-02-18 11:44:00,
2013-02-18 06:49:00,-2.5,-5.9,29.89,ESE,109,3.5,3.5,85,0.00,OVC,FEW,0.00,0.0,WeatherDisplay:10.37,2013-02-18 11:49:00,
2013-02-18 06:54:00,-2.6,-6.2,29.88,SSE,155,10.4,10.4,84,0.00,OVC,FEW,0.00,5.0,WeatherDisplay:10.37,2013-02-18 11:54:00,
2013-02-18 06:59:00,-2.6,-6.0,29.89,South,169,11.5,11.5,85,0.00,OVC,FEW,0.00,5.0,WeatherDisplay:10.37,2013-02-18 11:59:00,
2013-02-18 07:04:00,-2.6,-6.0,29.89,East,94,5.0,5.0,85,0.00,OVC,FEW,0.00,7.0,WeatherDisplay:10.37,2013-02-18 12:04:00,
2013-02-18 07:09:00,-2.6,-6.0,29.89,ESE,111,3.5,3.5,85,0.00,OVC,FEW,0.00,9.0,WeatherDisplay:10.37,2013-02-18 12:09:00,
2013-02-18 07:14:00,-2.5,-5.9,29.89,North,5,6.0,6.0,85,0.00,OVC,FEW,0.00,11.0,WeatherDisplay:10.37,2013-02-18 12:14:00,
2013-02-18 07:19:00,-2.5,-5.9,29.89,SW,229,13.0,13.0,85,0.00,OVC,FEW,0.00,14.0,WeatherDisplay:10.37,2013-02-18 12:19:00,
2013-02-18 07:24:00,-2.5,-5.9,29.90,WSW,258,7.0,7.0,85,0.00,OVC,FEW,0.00,39.0,WeatherDisplay:10.37,2013-02-18 12:24:00,
2013-02-18 07:29:00,-2.4,-6.0,29.89,ENE,59,5.0,5.0,84,0.00,OVC,FEW,0.00,40.0,WeatherDisplay:10.37,2013-02-18 12:29:00,
2013-02-18 07:34:00,-2.3,-5.7,29.90,WSW,253,8.0,8.0,85,0.00,OVC,FEW,0.00,51.0,WeatherDisplay:10.37,2013-02-18 12:34:00,
2013-02-18 07:39:00,-2.2,-5.8,29.90,SSE,155,7.0,7.0,84,0.00,OVC,FEW,0.00,63.0,WeatherDisplay:10.37,2013-02-18 12:39:00,
2013-02-18 07:44:00,-2.2,-5.8,29.91,NW,321,12.0,12.0,84,0.00,OVC,FEW,0.00,76.0,WeatherDisplay:10.37,2013-02-18 12:44:00,
2013-02-18 07:49:00,-2.1,-5.5,29.91,West,269,5.0,5.0,85,0.00,OVC,FEW,0.00,84.0,WeatherDisplay:10.37,2013-02-18 12:49:00,
2013-02-18 07:54:00,-1.9,-5.6,29.91,NNW,348,13.0,13.0,84,0.00,OVC,FEW,0.00,77.0,WeatherDisplay:10.37,2013-02-18 12:54:00,
2013-02-18 07:59:00,-1.8,-5.5,29.91,NE,50,3.5,3.5,84,0.00,OVC,FEW,0.00,91.0,WeatherDisplay:10.37,2013-02-18 12:59:00,
2013-02-18 08:04:00,-1.6,-5.0,29.91,SE,139,4.6,4.6,85,0.00,OVC,FEW,0.00,123.0,WeatherDisplay:10.37,2013-02-18 13:04:00,
2013-02-18 08:09:00,-1.5,-5.2,29.91,NNW,335,11.0,11.0,84,0.00,OVC,FEW,0.00,127.0,WeatherDisplay:10.37,2013-02-18 13:09:00,
2013-02-18 08:14:00,-1.3,-5.0,29.91,WNW,286,10.4,10.4,84,0.00,OVC,FEW,0.00,146.0,WeatherDisplay:10.37,2013-02-18 13:14:00,
2013-02-18 08:20:00,-1.1,-4.8,29.92,WSW,244,8.1,8.1,84,0.00,OVC,FEW,0.00,127.0,WeatherDisplay:10.37,2013-02-18 13:20:00,
2013-02-18 08:25:00,-1.0,-4.7,29.92,WNW,290,6.0,6.0,84,0.00,OVC,FEW,0.00,149.0,WeatherDisplay:10.37,2013-02-18 13:25:00,
2013-02-18 08:30:00,-0.9,-4.6,29.92,West,265,5.0,5.0,84,0.00,OVC,FEW,0.00,156.0,WeatherDisplay:10.37,2013-02-18 13:30:00,
2013-02-18 08:35:00,-0.8,-4.7,29.93,WNW,296,11.5,11.5,83,0.00,OVC,FEW,0.00,144.0,WeatherDisplay:10.37,2013-02-18 13:35:00,
2013-02-18 08:40:00,-0.9,-4.8,29.92,SW,219,10.4,10.4,83,0.00,OVC,FEW,0.00,165.0,WeatherDisplay:10.37,2013-02-18 13:40:00,
2013-02-18 08:45:00,-0.6,-4.5,29.93,WNW,286,10.4,10.4,83,0.00,OVC,FEW,0.00,244.0,WeatherDisplay:10.37,2013-02-18 13:45:00,
2013-02-18 08:50:00,-0.3,-4.2,29.93,NNE,22,5.8,5.8,83,0.00,OVC,FEW,0.00,281.0,WeatherDisplay:10.37,2013-02-18 13:50:00,
2013-02-18 08:55:00,0.0,-3.9,29.93,West,275,9.2,9.2,83,0.00,OVC,FEW,0.00,299.0,WeatherDisplay:10.37,2013-02-18 13:55:00,
2013-02-18 09:00:00,0.4,-3.5,29.93,WSW,248,10.4,10.4,83,0.00,OVC,FEW,0.00,348.0,WeatherDisplay:10.37,2013-02-18 14:00:00,
2013-02-18 09:05:00,0.9,-3.1,29.93,NE,38,6.0,6.0,83,0.00,OVC,FEW,0.00,362.0,WeatherDisplay:10.37,2013-02-18 14:05:00,
2013-02-18 09:10:00,1.0,-3.2,29.93,SE,131,4.6,4.6,82,0.00,OVC,FEW,0.00,316.0,WeatherDisplay:10.37,2013-02-18 14:10:00,
2013-02-18 09:15:00,1.4,-2.8,29.94,WNW,300,13.0,13.0,82,0.00,OVC,FEW,0.00,304.0,WeatherDisplay:10.37,2013-02-18 14:15:00,
2013-02-18 09:20:00,1.6,-2.6,29.94,WNW,287,4.6,4.6,82,0.00,OVC,FEW,0.00,376.0,WeatherDisplay:10.37,2013-02-18 14:20:00,
2013-02-18 09:25:00,2.1,-2.1,29.94,North,360,3.5,3.5,82,0.00,OVC,FEW,0.00,432.0,WeatherDisplay:10.37,2013-02-18 14:25:00,
2013-02-18 09:30:00,2.5,-2.0,29.94,ESE,109,9.0,9.0,81,0.00,OVC,FEW,0.00,529.0,WeatherDisplay:10.37,2013-02-18 14:30:00,
2013-02-18 09:35:00,2.4,-2.4,29.94,NW,311,5.0,5.0,80,0.00,OVC,FEW,0.00,341.0,WeatherDisplay:10.37,2013-02-18 14:35:00,
2013-02-18 09:40:00,2.7,-1.8,29.94,SW,229,6.0,6.0,81,0.00,OVC,FEW,0.00,478.0,WeatherDisplay:10.37,2013-02-18 14:40:00,
2013-02-18 09:45:00,2.9,-1.6,29.95,SSW,193,6.0,6.0,81,0.00,OVC,FEW,0.00,510.0,WeatherDisplay:10.37,2013-02-18 14:45:00,
2013-02-18 09:50:00,3.1,-1.7,29.96,East,100,5.8,5.8,80,0.00,OVC,FEW,0.00,636.0,WeatherDisplay:10.37,2013-02-18 14:50:00,
2013-02-18 09:55:00,3.3,-1.7,29.96,WSW,239,10.4,10.4,79,0.00,OVC,FEW,0.00,427.0,WeatherDisplay:10.37,2013-02-18 14:55:00,
2013-02-18 10:00:00,3.0,-2.0,29.96,WSW,256,9.2,9.2,79,0.00,OVC,FEW,0.00,555.0,WeatherDisplay:10.37,2013-02-18 15:00:00,
2013-02-18 10:05:00,3.0,-1.8,29.97,NW,315,7.0,7.0,80,0.00,OVC,FEW,0.00,374.0,WeatherDisplay:10.37,2013-02-18 15:05:00,
2013-02-18 10:10:00,3.0,-1.8,29.97,NE,39,15.0,15.0,80,0.00,OVC,FEW,0.00,338.0,WeatherDisplay:10.37,2013-02-18 15:10:00,
2013-02-18 10:15:00,3.1,-1.4,29.97,NNW,336,12.0,12.0,81,0.00,OVC,FEW,0.00,360.0,WeatherDisplay:10.37,2013-02-18 15:15:00,
2013-02-18 10:20:00,3.0,-1.8,29.97,SE,124,4.0,4.0,80,0.00,OVC,FEW,0.00,294.0,WeatherDisplay:10.37,2013-02-18 15:20:00,
2013-02-18 10:25:00,3.3,-1.2,29.96,South,175,7.0,7.0,81,0.00,OVC,FEW,0.00,394.0,WeatherDisplay:10.37,2013-02-18 15:25:00,
2013-02-18 10:30:00,3.9,-0.9,29.97,SE,125,6.0,6.0,80,0.00,OVC,FEW,0.00,512.0,WeatherDisplay:10.37,2013-02-18 15:30:00,
2013-02-18 10:35:00,4.3,-0.5,29.97,NNW,339,9.2,9.2,80,0.00,OVC,FEW,0.00,612.0,WeatherDisplay:10.37,2013-02-18 15:35:00,
2013-02-18 10:40:00,5.1,0.0,29.97,East,101,14.0,14.0,79,0.00,OVC,FEW,0.00,731.0,WeatherDisplay:10.37,2013-02-18 15:40:00,
2013-02-18 10:45:00,5.6,0.8,29.97,South,172,10.4,10.4,80,0.00,OVC,FEW,0.00,731.0,WeatherDisplay:10.37,2013-02-18 15:45:00,
2013-02-18 10:50:00,6.0,0.9,29.97,SW,215,4.0,4.0,79,0.00,OVC,FEW,0.00,520.0,WeatherDisplay:10.37,2013-02-18 15:50:00,
2013-02-18 10:55:00,6.1,0.4,29.98,WSW,258,3.5,3.5,77,0.00,OVC,FEW,0.00,520.0,WeatherDisplay:10.37,2013-02-18 15:55:00,
2013-02-18 11:00:00,6.1,0.7,29.98,SE,144,3.5,3.5,78,0.00,OVC,FEW,0.00,313.0,WeatherDisplay:10.37,2013-02-18 16:00:00,
2013-02-18 11:05:00,6.0,0.3,29.98,WNW,296,5.0,5.0,77,0.00,SCT,FEW,0.00,462.0,WeatherDisplay:10.37,2013-02-18 16:05:00,
2013-02-18 11:11:00,6.3,0.9,29.98,WSW,242,10.4,10.4,78,0.00,SCT,FEW,0.00,473.0,WeatherDisplay:10.37,2013-02-18 16:11:00,
2013-02-18 11:16:00,6.4,1.0,29.98,SSE,167,4.6,4.6,78,0.00,SCT,FEW,0.00,473.0,WeatherDisplay:10.37,2013-02-18 16:16:00,
2013-02-18 11:21:00,7.1,1.4,29.98,SW,217,9.2,9.2,77,0.00,SCT,FEW,0.00,429.0,WeatherDisplay:10.37,2013-02-18 16:21:00,
2013-02-18 11:26:00,7.3,1.6,29.98,West,267,7.0,7.0,77,0.00,SCT,FEW,0.00,315.0,WeatherDisplay:10.37,2013-02-18 16:26:00,
2013-02-18 11:31:00,8.0,2.0,29.98,North,360,7.0,7.0,76,0.00,SCT,FEW,0.00,652.0,WeatherDisplay:10.37,2013-02-18 16:31:00,
2013-02-18 11:36:00,8.3,2.0,29.97,West,263,7.0,7.0,75,0.00,SCT,FEW,0.00,642.0,WeatherDisplay:10.37,2013-02-18 16:36:00,
2013-02-18 11:41:00,8.5,1.9,29.98,SW,226,9.0,9.0,74,0.00,SCT,FEW,0.00,701.0,WeatherDisplay:10.37,2013-02-18 16:41:00,
2013-02-18 11:46:00,8.3,1.7,29.98,ENE,73,12.0,12.0,74,0.00,SCT,FEW,0.00,378.0,WeatherDisplay:10.37,2013-02-18 16:46:00,
2013-02-18 11:51:00,7.9,1.3,29.98,NW,305,3.0,16.0,74,0.00,SCT,FEW,0.00,728.0,WeatherDisplay:10.37,2013-02-18 16:51:00,
2013-02-18 11:56:00,8.1,1.8,29.98,West,263,15.0,15.0,75,0.00,SCT,FEW,0.00,438.0,WeatherDisplay:10.37,2013-02-18 16:56:00,
2013-02-18 12:01:00,8.4,2.1,29.98,WSW,253,9.2,9.2,75,0.00,SCT,FEW,0.00,680.0,WeatherDisplay:10.37,2013-02-18 17:01:00,
2013-02-18 12:06:00,9.0,3.0,29.98,WNW,302,3.0,15.0,76,0.00,CLR,FEW,0.00,740.0,WeatherDisplay:10.37,2013-02-18 17:06:00,
2013-02-18 12:11:00,9.8,2.9,29.98,SW,221,11.5,11.5,73,0.00,CLR,FEW,0.00,659.0,WeatherDisplay:10.37,2013-02-18 17:11:00,
2013-02-18 12:16:00,9.8,2.9,29.98,SW,232,6.0,6.0,73,0.00,CLR,FEW,0.00,682.0,WeatherDisplay:10.37,2013-02-18 17:16:00,
2013-02-18 12:21:00,10.0,3.3,29.98,WNW,291,3.0,12.0,74,0.00,CLR,FEW,0.00,673.0,WeatherDisplay:10.37,2013-02-18 17:21:00,
2013-02-18 12:26:00,10.1,3.2,29.98,North,5,12.0,12.0,73,0.00,CLR,FEW,0.00,673.0,WeatherDisplay:10.37,2013-02-18 17:26:00,
2013-02-18 12:31:00,10.3,3.7,29.99,WSW,257,5.0,5.0,74,0.00,CLR,FEW,0.00,684.0,WeatherDisplay:10.37,2013-02-18 17:31:00,
2013-02-18 12:36:00,10.9,3.7,29.99,WNW,299,2.0,16.0,72,0.00,CLR,FEW,0.00,668.0,WeatherDisplay:10.37,2013-02-18 17:36:00,
2013-02-18 12:41:00,10.9,3.6,29.99,SSE,152,4.0,4.0,72,0.00,CLR,FEW,0.00,661.0,WeatherDisplay:10.37,2013-02-18 17:41:00,
2013-02-18 12:46:00,11.0,3.4,29.98,NE,40,3.5,3.5,71,0.00,CLR,FEW,0.00,661.0,WeatherDisplay:10.37,2013-02-18 17:46:00,
2013-02-18 12:51:00,11.2,3.9,29.99,SW,231,13.0,13.0,72,0.00,CLR,FEW,0.00,654.0,WeatherDisplay:10.37,2013-02-18 17:51:00,
2013-02-18 12:56:00,11.3,3.7,29.99,North,5,4.0,4.0,71,0.00,CLR,FEW,0.00,642.0,WeatherDisplay:10.37,2013-02-18 17:56:00,
2013-02-18 13:01:00,11.3,3.4,29.99,NW,325,12.0,12.0,70,0.00,CLR,FEW,0.00,647.0,WeatherDisplay:10.37,2013-02-18 18:01:00,
2013-02-18 13:06:00,11.2,3.6,29.99,SE,136,10.4,10.4,71,0.00,CLR,FEW,0.00,635.0,WeatherDisplay:10.37,2013-02-18 18:06:00,
2013-02-18 13:12:00,11.6,3.7,29.99,WNW,302,10.4,10.4,70,0.00,CLR,FEW,0.00,649.0,WeatherDisplay:10.37,2013-02-18 18:12:00,
2013-02-18 13:17:00,11.6,4.0,29.99,ENE,59,9.2,9.2,71,0.00,CLR,FEW,0.00,693.0,WeatherDisplay:10.37,2013-02-18 18:17:00,
2013-02-18 13:22:00,11.8,3.6,30.00,NNE,19,10.4,10.4,69,0.00,CLR,FEW,0.00,645.0,WeatherDisplay:10.37,2013-02-18 18:22:00,
2013-02-18 13:27:00,11.9,3.7,30.00,West,271,6.9,6.9,69,0.00,CLR,FEW,0.00,622.0,WeatherDisplay:10.37,2013-02-18 18:27:00,
2013-02-18 13:32:00,12.1,3.9,30.00,West,278,14.0,14.0,69,0.00,CLR,FEW,0.00,606.0,WeatherDisplay:10.37,2013-02-18 18:32:00,
2013-02-18 13:37:00,12.1,3.6,30.00,NNE,20,5.8,5.8,68,0.00,CLR,FEW,0.00,615.0,WeatherDisplay:10.37,2013-02-18 18:37:00,
2013-02-18 13:42:00,12.0,3.5,30.00,NW,305,9.2,9.2,68,0.00,CLR,FEW,0.00,598.0,WeatherDisplay:10.37,2013-02-18 18:42:00,
2013-02-18 13:47:00,12.1,3.6,30.01,SW,234,3.5,3.5,68,0.00,CLR,FEW,0.00,598.0,WeatherDisplay:10.37,2013-02-18 18:47:00,
2013-02-18 13:52:00,11.9,2.7,30.01,South,180,7.0,7.0,66,0.00,CLR,FEW,0.00,413.0,WeatherDisplay:10.37,2013-02-18 18:52:00,
2013-02-18 13:57:00,11.3,2.5,30.01,West,265,12.0,12.0,67,0.00,CLR,FEW,0.00,575.0,WeatherDisplay:10.37,2013-02-18 18:57:00,
2013-02-18 14:02:00,11.2,2.4,30.00,SSW,192,6.0,6.0,67,0.00,CLR,FEW,0.00,552.0,WeatherDisplay:10.37,2013-02-18 19:02:00,
2013-02-18 14:07:00,11.5,2.7,30.00,NW,306,6.9,6.9,67,0.00,CLR,FEW,0.00,545.0,WeatherDisplay:10.37,2013-02-18 19:07:00,
2013-02-18 14:13:00,11.7,2.8,30.00,SW,225,4.6,4.6,67,0.00,CLR,FEW,0.00,531.0,WeatherDisplay:10.37,2013-02-18 19:13:00,
2013-02-18 14:18:00,11.7,2.8,30.00,WSW,253,15.0,15.0,67,0.00,CLR,FEW,0.00,519.0,WeatherDisplay:10.37,2013-02-18 19:18:00,
2013-02-18 14:23:00,11.7,2.5,30.01,West,273,5.8,5.8,66,0.00,CLR,FEW,0.00,508.0,WeatherDisplay:10.37,2013-02-18 19:23:00,
2013-02-18 14:28:00,11.7,2.5,30.01,WSW,241,5.0,5.0,66,0.00,CLR,FEW,0.00,499.0,WeatherDisplay:10.37,2013-02-18 19:28:00,
2013-02-18 14:33:00,11.8,2.6,30.01,SSE,164,11.5,11.5,66,0.00,CLR,FEW,0.00,489.0,WeatherDisplay:10.37,2013-02-18 19:33:00,
2013-02-18 14:38:00,11.6,2.1,30.01,ENE,78,3.5,3.5,65,0.00,CLR,FEW,0.00,473.0,WeatherDisplay:10.37,2013-02-18 19:38:00,
2013-02-18 14:43:00,11.8,2.3,30.01,WNW,300,8.1,8.1,65,0.00,CLR,FEW,0.00,462.0,WeatherDisplay:10.37,2013-02-18 19:43:00,
2013-02-18 14:48:00,11.8,2.9,30.01,WNW,290,11.5,11.5,67,0.00,CLR,FEW,0.00,452.0,WeatherDisplay:10.37,2013-02-18 19:48:00,
2013-02-18 14:53:00,12.0,2.8,30.02,WNW,292,11.5,11.5,66,0.00,CLR,FEW,0.00,434.0,WeatherDisplay:10.37,2013-02-18 19:53:00,
2013-02-18 14:58:00,12.1,2.6,30.02,East,86,7.0,7.0,65,0.00,CLR,FEW,0.00,425.0,WeatherDisplay:10.37,2013-02-18 19:58:00,
2013-02-18 15:03:00,12.0,2.5,30.02,NE,36,5.0,5.0,65,0.00,CLR,FEW,0.00,408.0,WeatherDisplay:10.37,2013-02-18 20:03:00,
2013-02-18 15:08:00,12.0,2.5,30.02,North,355,4.0,4.0,65,0.00,CLR,FEW,0.00,396.0,WeatherDisplay:10.37,2013-02-18 20:08:00,
2013-02-18 15:13:00,11.8,2.0,30.02,WNW,302,11.5,11.5,64,0.00,CLR,FEW,0.00,381.0,WeatherDisplay:10.37,2013-02-18 20:13:00,
2013-02-18 15:18:00,11.5,2.0,30.02,West,267,10.4,10.4,65,0.00,CLR,FEW,0.00,367.0,WeatherDisplay:10.37,2013-02-18 20:18:00,
2013-02-18 15:24:00,11.3,1.5,30.02,West,268,7.0,7.0,64,0.00,CLR,FEW,0.00,350.0,WeatherDisplay:10.37,2013-02-18 20:24:00,
2013-02-18 15:29:00,11.2,1.0,30.03,SW,221,7.0,7.0,63,0.00,CLR,FEW,0.00,283.0,WeatherDisplay:10.37,2013-02-18 20:29:00,
2013-02-18 15:34:00,10.8,1.0,30.03,NW,323,5.0,5.0,64,0.00,CLR,FEW,0.00,35.0,WeatherDisplay:10.37,2013-02-18 20:34:00,
2013-02-18 15:39:00,10.6,0.8,30.04,West,263,4.0,4.0,64,0.00,CLR,FEW,0.00,53.0,WeatherDisplay:10.37,2013-02-18 20:39:00,
2013-02-18 15:44:00,10.4,0.3,30.04,NNW,330,5.0,5.0,63,0.00,CLR,FEW,0.00,32.0,WeatherDisplay:10.37,2013-02-18 20:44:00,
2013-02-18 15:49:00,10.2,0.4,30.05,WSW,257,3.5,3.5,64,0.00,CLR,FEW,0.00,32.0,WeatherDisplay:10.37,2013-02-18 20:49:00,
2013-02-18 15:54:00,10.1,0.7,30.05,South,182,5.0,5.0,65,0.00,CLR,FEW,0.00,37.0,WeatherDisplay:10.37,2013-02-18 20:54:00,
2013-02-18 15:59:00,10.1,0.3,30.05,NNW,348,10.4,10.4,64,0.00,CLR,FEW,0.00,37.0,WeatherDisplay:10.37,2013-02-18 20:59:00,
2013-02-18 16:04:00,10.0,0.6,30.06,SW,233,6.9,6.9,65,0.00,CLR,FEW,0.00,30.0,WeatherDisplay:10.37,2013-02-18 21:04:00,
2013-02-18 16:09:00,9.9,0.1,30.06,NNE,22,4.0,4.0,64,0.00,CLR,FEW,0.00,37.0,WeatherDisplay:10.37,2013-02-18 21:09:00,
2013-02-18 16:14:00,9.8,0.0,30.06,WSW,246,5.0,5.0,64,0.00,CLR,FEW,0.00,25.0,WeatherDisplay:10.37,2013-02-18 21:14:00,
2013-02-18 16:19:00,9.7,-0.4,30.06,SSW,205,5.0,5.0,63,0.00,CLR,FEW,0.00,25.0,WeatherDisplay:10.37,2013-02-18 21:19:00,
2013-02-18 16:24:00,9.7,0.0,30.07,SW,225,5.0,5.0,64,0.00,CLR,FEW,0.00,23.0,WeatherDisplay:10.37,2013-02-18 21:24:00,
2013-02-18 16:29:00,9.5,0.1,30.07,WSW,245,6.0,6.0,65,0.00,CLR,FEW,0.00,21.0,WeatherDisplay:10.37,2013-02-18 21:29:00,
2013-02-18 16:34:00,9.3,-0.1,30.07,North,360,4.0,4.0,65,0.00,CLR,FEW,0.00,19.0,WeatherDisplay:10.37,2013-02-18 21:34:00,
2013-02-18 16:39:00,9.1,-0.3,30.08,West,260,7.0,7.0,65,0.00,CLR,FEW,0.00,19.0,WeatherDisplay:10.37,2013-02-18 21:39:00,
2013-02-18 16:44:00,8.9,-0.5,30.08,SE,142,3.5,3.5,65,0.00,CLR,FEW,0.00,16.0,WeatherDisplay:10.37,2013-02-18 21:44:00,
2013-02-18 16:49:00,8.9,-0.2,30.08,SE,138,4.6,4.6,66,0.00,CLR,FEW,0.00,16.0,WeatherDisplay:10.37,2013-02-18 21:49:00,
2013-02-18 16:54:00,8.6,-0.1,30.09,SE,136,2.0,2.0,67,0.00,CLR,FEW,0.00,14.0,WeatherDisplay:10.37,2013-02-18 21:54:00,
2013-02-18 16:59:00,8.3,-1.1,30.09,NW,304,10.4,10.4,65,0.00,CLR,FEW,0.00,11.0,WeatherDisplay:10.37,2013-02-18 21:59:00,
2013-02-18 17:04:00,8.1,-1.2,30.09,SSE,154,2.3,2.3,65,0.00,CLR,FEW,0.00,9.0,WeatherDisplay:10.37,2013-02-18 22:04:00,
2013-02-18 17:09:00,7.9,-1.1,30.09,South,191,3.0,3.0,66,0.00,CLR,FEW,0.00,7.0,WeatherDisplay:10.37,2013-02-18 22:09:00,
2013-02-18 17:14:00,7.6,-0.8,30.09,SSW,196,1.2,1.2,68,0.00,CLR,FEW,0.00,5.0,WeatherDisplay:10.37,2013-02-18 22:14:00,
2013-02-18 17:19:00,7.3,-1.1,30.10,SSW,197,7.0,7.0,68,0.00,CLR,FEW,0.00,0.0,WeatherDisplay:10.37,2013-02-18 22:19:00,
2013-02-18 17:24:00,7.2,-1.8,30.10,South,179,3.5,3.5,66,0.00,CLR,FEW,0.00,0.0,WeatherDisplay:10.37,2013-02-18 22:24:00,
2013-02-18 17:29:00,7.0,-2.3,30.10,NW,321,3.5,3.5,65,0.00,CLR,FEW,0.00,0.0,WeatherDisplay:10.37,2013-02-18 22:29:00,
2013-02-18 17:34:00,6.8,-2.2,30.11,NW,322,4.0,4.0,66,0.00,CLR,FEW,0.00,0.0,WeatherDisplay:10.37,2013-02-18 22:34:00,
2013-02-18 17:40:00,6.7,-2.3,30.11,NW,316,4.0,4.0,66,0.00,CLR,FEW,0.00,0.0,WeatherDisplay:10.37,2013-02-18 22:40:00,
2013-02-18 17:45:00,6.5,-2.8,30.11,SW,227,4.0,4.0,65,0.00,CLR,FEW,0.00,0.0,WeatherDisplay:10.37,2013-02-18 22:45:00,
2013-02-18 17:50:00,6.5,-2.8,30.12,ESE,123,2.3,2.3,65,0.00,CLR,FEW,0.00,0.0,WeatherDisplay:10.37,2013-02-18 22:50:00,
2013-02-18 17:55:00,6.4,-2.5,30.12,North,11,4.0,4.0,66,0.00,CLR,FEW,0.00,0.0,WeatherDisplay:10.37,2013-02-18 22:55:00,
2013-02-18 18:00:00,6.2,-2.7,30.12,NE,35,3.0,3.0,66,0.00,CLR,FEW,0.00,0.0,WeatherDisplay:10.37,2013-02-18 23:00:00,
2013-02-18 18:05:00,6.1,-2.8,30.12,West,275,0.0,0.0,66,0.00,CLR,FEW,0.00,0.0,WeatherDisplay:10.37,2013-02-18 23:05:00,
2013-02-18 18:10:00,6.0,-2.6,30.13,NNW,335,1.2,1.2,67,0.00,CLR,FEW,0.00,0.0,WeatherDisplay:10.37,2013-02-18 23:10:00,
2013-02-18 18:15:00,5.9,-2.7,30.13,SE,139,2.3,2.3,67,0.00,CLR,FEW,0.00,0.0,WeatherDisplay:10.37,2013-02-18 23:15:00,
2013-02-18 18:20:00,5.7,-2.9,30.12,North,11,3.0,3.0,67,0.00,CLR,FEW,0.00,0.0,WeatherDisplay:10.37,2013-02-18 23:20:00,
2013-02-18 18:25:00,5.7,-2.9,30.13,WSW,256,1.2,1.2,67,0.00,CLR,FEW,0.00,0.0,WeatherDisplay:10.37,2013-02-18 23:25:00,
2013-02-18 18:30:00,5.7,-3.2,30.14,East,98,3.5,3.5,66,0.00,CLR,FEW,0.00,0.0,WeatherDisplay:10.37,2013-02-18 23:30:00,
2013-02-18 18:36:00,5.7,-3.2,30.14,East,97,2.3,0.0,66,0.00,CLR,FEW,0.00,0.0,WeatherDisplay:10.37,2013-02-18 23:36:00,
2013-02-18 18:41:00,5.5,-3.4,30.14,WNW,294,3.5,3.5,66,0.00,CLR,FEW,0.00,0.0,WeatherDisplay:10.37,2013-02-18 23:41:00,
2013-02-18 18:46:00,5.4,-3.2,30.14,SSW,201,4.0,4.0,67,0.00,CLR,FEW,0.00,0.0,WeatherDisplay:10.37,2013-02-18 23:46:00,
2013-02-18 18:51:00,5.3,-3.3,30.14,South,171,3.5,0.0,67,0.00,CLR,FEW,0.00,0.0,WeatherDisplay:10.37,2013-02-18 23:51:00,
2013-02-18 18:56:00,5.3,-3.3,30.14,SW,232,3.0,3.0,67,0.00,CLR,FEW,0.00,0.0,WeatherDisplay:10.37,2013-02-18 23:56:00,
2013-02-18 19:01:00,5.2,-3.4,30.14,SW,232,1.2,1.2,67,0.00,CLR,FEW,0.00,0.0,WeatherDisplay:10.37,2013-02-19 00:01:00,
2013-02-18 19:06:00,5.0,-3.3,30.15,West,271,7.0,7.0,68,0.00,CLR,FEW,0.00,0.0,WeatherDisplay:10.37,2013-02-19 00:06:00,
2013-02-18 19:11:00,4.9,-3.7,30.15,South,184,4.0,4.0,67,0.00,CLR,FEW,0.00,0.0,WeatherDisplay:10.37,2013-02-19 00:11:00,
2013-02-18 19:16:00,4.9,-3.7,30.15,South,184,1.0,0.0,67,0.00,CLR,FEW,0.00,0.0,WeatherDisplay:10.37,2013-02-19 00:16:00,
2013-02-18 19:21:00,4.7,-3.9,30.15,South,182,4.0,4.0,67,0.00,CLR,FEW,0.00,0.0,WeatherDisplay:10.37,2013-02-19 00:21:00,
2013-02-18 19:26:00,4.7,-3.9,30.15,SSE,150,3.0,3.0,67,0.00,CLR,FEW,0.00,0.0,WeatherDisplay:10.37,2013-02-19 00:26:00,
2013-02-18 19:31:00,4.7,-3.9,30.15,SE,145,2.3,2.3,67,0.00,CLR,FEW,0.00,0.0,WeatherDisplay:10.37,2013-02-19 00:31:00,
2013-02-18 19:36:00,4.7,-3.9,30.15,South,184,1.0,1.0,67,0.00,CLR,FEW,0.00,0.0,WeatherDisplay:10.37,2013-02-19 00:36:00,
2013-02-18 19:41:00,4.7,-3.9,30.16,SE,136,3.5,3.5,67,0.00,CLR,FEW,0.00,0.0,WeatherDisplay:10.37,2013-02-19 00:41:00,
2013-02-18 19:46:00,4.5,-3.4,30.16,SE,136,2.3,0.0,69,0.00,CLR,FEW,0.00,0.0,WeatherDisplay:10.37,2013-02-19 00:46:00,
2013-02-18 19:51:00,4.2,-4.0,30.16,SE,136,1.2,1.2,68,0.00,CLR,FEW,0.00,0.0,WeatherDisplay:10.37,2013-02-19 00:51:00,
2013-02-18 19:56:00,4.0,-4.5,30.16,SE,134,2.0,2.0,67,0.00,CLR,FEW,0.00,0.0,WeatherDisplay:10.37,2013-02-19 00:56:00,
2013-02-18 20:01:00,4.0,-4.2,30.16,SE,134,1.2,0.0,68,0.00,CLR,FEW,0.00,0.0,WeatherDisplay:10.37,2013-02-19 01:01:00,
2013-02-18 20:06:00,4.1,-4.1,30.17,SE,142,0.0,0.0,68,0.00,CLR,FEW,0.00,0.0,WeatherDisplay:10.37,2013-02-19 01:06:00,
2013-02-18 20:11:00,3.8,-4.7,30.17,East,86,4.0,4.0,67,0.00,CLR,FEW,0.00,0.0,WeatherDisplay:10.37,2013-02-19 01:11:00,
2013-02-18 20:16:00,3.6,-4.6,30.17,West,277,3.5,3.5,68,0.00,CLR,FEW,0.00,0.0,WeatherDisplay:10.37,2013-02-19 01:16:00,
2013-02-18 20:21:00,3.6,-4.6,30.18,SE,144,1.2,0.0,68,0.00,CLR,FEW,0.00,0.0,WeatherDisplay:10.37,2013-02-19 01:21:00,
2013-02-18 20:26:00,3.4,-4.5,30.17,SE,138,1.2,1.2,69,0.00,CLR,FEW,0.00,0.0,WeatherDisplay:10.37,2013-02-19 01:26:00,
2013-02-18 20:32:00,3.1,-4.5,30.18,ESE,118,1.2,1.2,70,0.00,CLR,FEW,0.00,0.0,WeatherDisplay:10.37,2013-02-19 01:32:00,
2013-02-18 20:37:00,3.2,-4.7,30.18,ESE,118,0.0,0.0,69,0.00,CLR,FEW,0.00,0.0,WeatherDisplay:10.37,2013-02-19 01:37:00,
2013-02-18 20:42:00,3.2,-4.7,30.18,ESE,117,0.0,0.0,69,0.00,CLR,FEW,0.00,0.0,WeatherDisplay:10.37,2013-02-19 01:42:00,
2013-02-18 20:47:00,3.1,-4.8,30.18,ESE,117,0.0,0.0,69,0.00,CLR,FEW,0.00,0.0,WeatherDisplay:10.37,2013-02-19 01:47:00,
2013-02-18 20:52:00,3.1,-4.5,30.19,ESE,117,0.0,0.0,70,0.00,CLR,FEW,0.00,0.0,WeatherDisplay:10.37,2013-02-19 01:52:00,
2013-02-18 20:57:00,2.7,-4.9,30.18,ESE,117,1.2,0.0,70,0.00,CLR,FEW,0.00,0.0,WeatherDisplay:10.37,2013-02-19 01:57:00,
2013-02-18 21:02:00,2.6,-4.7,30.18,ESE,117,1.0,0.0,71,0.00,CLR,FEW,0.00,0.0,WeatherDisplay:10.37,2013-02-19 02:02:00,
2013-02-18 21:07:00,2.4,-4.9,30.18,ESE,117,0.0,0.0,71,0.00,CLR,FEW,0.00,0.0,WeatherDisplay:10.37,2013-02-19 02:07:00,
2013-02-18 21:12:00,2.3,-5.0,30.18,ESE,117,0.0,0.0,71,0.00,CLR,FEW,0.00,0.0,WeatherDisplay:10.37,2013-02-19 02:12:00,
2013-02-18 21:18:00,2.4,-5.5,30.19,ESE,117,0.0,0.0,69,0.00,CLR,FEW,0.00,0.0,WeatherDisplay:10.37,2013-02-19 02:18:00,
2013-02-18 21:23:00,2.5,-5.4,30.18,ESE,117,0.0,0.0,69,0.00,CLR,FEW,0.00,0.0,WeatherDisplay:10.37,2013-02-19 02:23:00,
2013-02-18 21:28:00,2.6,-5.3,30.18,ESE,117,0.0,0.0,69,0.00,CLR,FEW,0.00,0.0,WeatherDisplay:10.37,2013-02-19 02:28:00,
2013-02-18 21:33:00,2.7,-5.2,30.18,ESE,117,0.0,0.0,69,0.00,CLR,FEW,0.00,0.0,WeatherDisplay:10.37,2013-02-19 02:33:00,
2013-02-18 21:38:00,2.9,-5.0,30.18,ESE,117,1.2,1.2,69,0.00,CLR,FEW,0.00,0.0,WeatherDisplay:10.37,2013-02-19 02:38:00,
2013-02-18 21:43:00,3.2,-4.7,30.18,ESE,117,0.0,0.0,69,0.00,CLR,FEW,0.00,0.0,WeatherDisplay:10.37,2013-02-19 02:43:00,
2013-02-18 21:49:00,3.3,-4.9,30.17,ESE,117,0.0,0.0,68,0.00,CLR,FEW,0.00,0.0,WeatherDisplay:10.37,2013-02-19 02:49:00,
2013-02-18 21:54:00,3.3,-5.2,30.17,ESE,117,0.0,0.0,67,0.00,CLR,FEW,0.00,0.0,WeatherDisplay:10.37,2013-02-19 02:54:00,
2013-02-18 21:59:00,3.3,-4.9,30.17,ESE,117,0.0,0.0,68,0.00,CLR,FEW,0.00,0.0,WeatherDisplay:10.37,2013-02-19 02:59:00,
2013-02-18 22:04:00,3.3,-4.9,30.17,ESE,117,0.0,0.0,68,0.00,CLR,FEW,0.00,0.0,WeatherDisplay:10.37,2013-02-19 03:04:00,
2013-02-18 22:09:00,3.3,-4.9,30.17,ESE,117,0.0,0.0,68,0.00,CLR,FEW,0.00,0.0,WeatherDisplay:10.37,2013-02-19 03:09:00,
2013-02-18 22:14:00,3.2,-5.0,30.17,ESE,117,0.0,0.0,68,0.00,CLR,FEW,0.00,0.0,WeatherDisplay:10.37,2013-02-19 03:14:00,
2013-02-18 22:20:00,3.1,-4.8,30.16,ESE,117,0.0,0.0,69,0.00,CLR,FEW,0.00,0.0,WeatherDisplay:10.37,2013-02-19 03:20:00,
2013-02-18 22:25:00,3.1,-5.1,30.16,ESE,117,0.0,0.0,68,0.00,CLR,FEW,0.00,0.0,WeatherDisplay:10.37,2013-02-19 03:25:00,
2013-02-18 22:30:00,3.1,-5.1,30.17,ESE,117,0.0,0.0,68,0.00,CLR,FEW,0.00,0.0,WeatherDisplay:10.37,2013-02-19 03:30:00,
2013-02-18 22:35:00,3.2,-5.0,30.17,ESE,117,0.0,0.0,68,0.00,CLR,FEW,0.00,0.0,WeatherDisplay:10.37,2013-02-19 03:35:00,
2013-02-18 22:40:00,3.4,-4.8,30.17,ESE,117,0.0,0.0,68,0.00,CLR,FEW,0.00,0.0,WeatherDisplay:10.37,2013-02-19 03:40:00,
2013-02-18 22:45:00,3.4,-5.1,30.17,ESE,117,0.0,0.0,67,0.00,CLR,FEW,0.00,0.0,WeatherDisplay:10.37,2013-02-19 03:45:00,
2013-02-18 22:50:00,3.3,-4.6,30.17,ESE,117,0.0,0.0,69,0.00,CLR,FEW,0.00,0.0,WeatherDisplay:10.37,2013-02-19 03:50:00,
2013-02-18 22:55:00,3.1,-4.8,30.18,ESE,117,0.0,0.0,69,0.00,CLR,FEW,0.00,0.0,WeatherDisplay:10.37,2013-02-19 03:55:00,
2013-02-18 23:00:00,3.1,-4.8,30.18,ESE,117,0.0,0.0,69,0.00,CLR,FEW,0.00,0.0,WeatherDisplay:10.37,2013-02-19 04:00:00,
2013-02-18 23:05:00,3.0,-4.6,30.17,ESE,117,0.0,0.0,70,0.00,CLR,FEW,0.00,0.0,WeatherDisplay:10.37,2013-02-19 04:05:00,
2013-02-18 23:11:00,3.0,-4.9,30.18,ESE,117,0.0,0.0,69,0.00,CLR,FEW,0.00,0.0,WeatherDisplay:10.37,2013-02-19 04:11:00,
2013-02-18 23:16:00,3.1,-4.8,30.18,ESE,117,0.0,0.0,69,0.00,CLR,FEW,0.00,0.0,WeatherDisplay:10.37,2013-02-19 04:16:00,
2013-02-18 23:21:00,3.1,-4.8,30.18,ESE,117,0.0,0.0,69,0.00,CLR,FEW,0.00,0.0,WeatherDisplay:10.37,2013-02-19 04:21:00,
2013-02-18 23:26:00,3.0,-4.3,30.18,ESE,117,0.0,0.0,71,0.00,CLR,FEW,0.00,0.0,WeatherDisplay:10.37,2013-02-19 04:26:00,
2013-02-18 23:31:00,3.0,-4.3,30.18,ESE,117,0.0,0.0,71,0.00,CLR,FEW,0.00,0.0,WeatherDisplay:10.37,2013-02-19 04:31:00,
2013-02-18 23:36:00,3.0,-4.0,30.17,ESE,117,0.0,0.0,72,0.00,CLR,FEW,0.00,0.0,WeatherDisplay:10.37,2013-02-19 04:36:00,
2013-02-18 23:41:00,3.0,-4.0,30.18,ESE,117,0.0,0.0,72,0.00,CLR,FEW,0.00,0.0,WeatherDisplay:10.37,2013-02-19 04:41:00,
2013-02-18 23:47:00,3.0,-4.3,30.18,ESE,117,0.0,0.0,71,0.00,CLR,FEW,0.00,0.0,WeatherDisplay:10.37,2013-02-19 04:47:00,
2013-02-18 23:52:00,3.0,-4.3,30.18,ESE,117,0.0,0.0,71,0.00,CLR,FEW,0.00,0.0,WeatherDisplay:10.37,2013-02-19 04:52:00,
2013-02-18 23:57:00,2.9,-4.1,30.18,ESE,117,0.0,0.0,72,0.00,CLR,FEW,0.00,0.0,WeatherDisplay:10.37,2013-02-19 04:57:00,